Mount Pleasant, IA

12:29 PM CST on February 20, 2018 (GMT -0600)
Mount Pleasant Municipal

Weather History for KMPZ - February, 2012

Change the Weather History Date:

Thursday, February 23, 2012

  Actual Average Record
Temperature  
Mean Temperature 34 °F -  
Max Temperature 37 °F 38 °F 58 °F (1977)
Min Temperature 32 °F 24 °F -9 °F (1989)
Degree Days  
Heating Degree Days 30    
Moisture  
Dew Point 34 °F    
Average Humidity 93    
Maximum Humidity 100    
Minimum Humidity 87    
Precipitation  
Precipitation 0.06 in - - ()
Sea Level Pressure  
Sea Level Pressure 29.42 in    
Wind  
Wind Speed 7 mph (ENE)    
Max Wind Speed 21 mph    
Max Gust Speed 26 mph    
Visibility 8 miles    
Events Rain    
Averages and records for this station are not official NWS values.
T = Trace of Precipitation, MM = Missing Value Source: NWS Daily Summary

Daily Weather History Graph

Daily Weather History Graph

Search for Another Location

Airport or City:

Trip Planner

Search our weather history database for the weather conditions in past years. The results will help you decide how hot, cold, wet, or windy it might be!

Date:

Astronomy

Feb. 23, 2012 Rise Set
Actual Time 6:49 AM CST 5:49 PM CST
Civil Twilight 6:22 AM CST 6:17 PM CST
Nautical Twilight 5:50 AM CST 6:49 PM CST
Astronomical Twilight 5:18 AM CST 7:21 PM CST
Moon 7:15 AM CST (2/23) 7:57 PM CST (2/23)
Length of Visible Light 11h 55m
Length of Day
10h 59m
Waxing Crescent, 3% of the Moon is Illuminated
Feb 23
Waxing Crescent
Feb 29
First Quarter
Mar 8
Full
Mar 14
Last Quarter
Mar 22
New

Hourly Weather History & Observations

Time (CST) Temp. Windchill Dew Point Humidity Pressure Visibility Wind Dir Wind Speed Gust Speed Precip Events Conditions
12:15 AM 33.8 °F 30.8 °F 30.2 °F 87% 29.46 in 10.0 mi South 3.5 mph - N/A   Clear
12:35 AM 33.8 °F - 30.2 °F 87% 29.46 in 10.0 mi Calm Calm - N/A   Clear
12:55 AM 32.0 °F 28.7 °F 30.2 °F 93% 29.47 in 10.0 mi South 3.5 mph - N/A   Clear
1:15 AM 33.8 °F - 30.2 °F 87% 29.46 in 10.0 mi Calm Calm - N/A   Clear
1:35 AM 32.0 °F 28.7 °F 28.4 °F 87% 29.47 in 10.0 mi South 3.5 mph - N/A   Clear
1:55 AM 32.0 °F 26.4 °F 28.4 °F 87% 29.47 in 10.0 mi South 5.8 mph - N/A   Clear
2:15 AM 32.0 °F 28.7 °F 30.2 °F 93% 29.46 in 10.0 mi SSE 3.5 mph - N/A   Clear
2:35 AM 32.0 °F - 30.2 °F 93% 29.46 in 10.0 mi Calm Calm - N/A   Scattered Clouds
2:55 AM 32.0 °F - 30.2 °F 93% 29.45 in 10.0 mi Calm Calm - N/A   Overcast
3:15 AM 32.0 °F - 30.2 °F 93% 29.44 in 10.0 mi Calm Calm - N/A   Overcast
3:35 AM 32.0 °F - 30.2 °F 93% 29.46 in 10.0 mi Calm Calm - N/A   Overcast
3:55 AM 32.0 °F 27.5 °F 30.2 °F 93% 29.45 in 10.0 mi ESE 4.6 mph - N/A   Overcast
4:15 AM 32.0 °F 27.5 °F 32.0 °F 100% 29.44 in 10.0 mi East 4.6 mph - N/A   Overcast
4:35 AM 33.8 °F 27.7 °F 32.0 °F 93% 29.44 in 10.0 mi ENE 6.9 mph - N/A   Overcast
4:55 AM 33.8 °F 27.7 °F 32.0 °F 93% 29.44 in 10.0 mi ENE 6.9 mph - N/A   Overcast
5:15 AM 33.8 °F 26.4 °F 32.0 °F 93% 29.42 in 10.0 mi ENE 9.2 mph - N/A   Overcast
5:35 AM 33.8 °F 28.6 °F 32.0 °F 93% 29.43 in 10.0 mi East 5.8 mph - N/A   Overcast
5:55 AM 35.6 °F 29.2 °F 32.0 °F 87% 29.43 in 10.0 mi East 8.1 mph - N/A   Light Drizzle
6:15 AM 35.6 °F 30.7 °F 32.0 °F 87% 29.42 in 10.0 mi ESE 5.8 mph - N/A   Light Drizzle
6:35 AM 35.6 °F 29.2 °F 32.0 °F 87% 29.41 in 7.0 mi SE 8.1 mph - N/A Rain Light Rain
6:55 AM 35.6 °F 29.2 °F 32.0 °F 87% 29.40 in 10.0 mi ESE 8.1 mph - N/A Rain Light Rain
7:15 AM 35.6 °F 29.2 °F 33.8 °F 93% 29.42 in 7.0 mi SE 8.1 mph - N/A Rain Light Rain
7:35 AM 35.6 °F 30.7 °F 33.8 °F 93% 29.42 in 4.0 mi ESE 5.8 mph - 0.01 in Rain Rain
7:55 AM 35.6 °F 29.9 °F 33.8 °F 93% 29.42 in 4.0 mi ESE 6.9 mph - 0.02 in Rain Light Rain
8:15 AM 37.4 °F 32.1 °F 35.6 °F 93% 29.43 in 3.0 mi ESE 6.9 mph - 0.01 in Rain Rain
8:35 AM 37.4 °F 32.1 °F 35.6 °F 93% 29.42 in 4.0 mi ESE 6.9 mph - 0.02 in Rain Light Rain
8:55 AM 37.4 °F 33.8 °F 35.6 °F 93% 29.43 in 4.0 mi East 4.6 mph - 0.03 in Rain Rain
9:15 AM 37.4 °F 30.8 °F 35.6 °F 93% 29.42 in 5.0 mi ENE 9.2 mph - N/A Rain Light Rain
9:35 AM 37.4 °F 30.3 °F 35.6 °F 93% 29.42 in 7.0 mi ENE 10.4 mph - 0.01 in Rain Light Rain
9:55 AM 35.6 °F 26.6 °F 35.6 °F 100% 29.42 in 2.0 mi East 13.8 mph - 0.01 in Rain Light Rain
10:15 AM 37.4 °F 30.3 °F 35.6 °F 93% 29.43 in 10.0 mi NNE 10.4 mph - N/A Rain Light Rain
10:35 AM 35.6 °F 26.2 °F 35.6 °F 100% 29.41 in 7.0 mi NE 15.0 mph - N/A Rain Light Rain
10:55 AM 37.4 °F 28.9 °F 35.6 °F 93% 29.40 in 7.0 mi ENE 13.8 mph - N/A   Overcast
11:15 AM 37.4 °F 28.2 °F 35.6 °F 93% 29.41 in 7.0 mi ENE 16.1 mph 20.7 mph N/A   Overcast
11:35 AM 37.4 °F 29.8 °F 35.6 °F 93% 29.42 in 7.0 mi ENE 11.5 mph - N/A   Overcast
11:55 AM 37.4 °F 28.5 °F 35.6 °F 93% 29.41 in 10.0 mi NE 15.0 mph - N/A Rain Light Rain
12:15 PM 37.4 °F 27.5 °F 35.6 °F 93% 29.40 in 7.0 mi ENE 18.4 mph - N/A Rain Light Rain
12:35 PM 37.4 °F 28.9 °F 35.6 °F 93% 29.40 in 10.0 mi NE 13.8 mph - N/A   Light Drizzle
12:55 PM 37.4 °F 28.9 °F 35.6 °F 93% 29.41 in 10.0 mi NE 13.8 mph - N/A Rain Light Rain
1:15 PM 37.4 °F 28.5 °F 35.6 °F 93% 29.40 in 10.0 mi NNE 15.0 mph - N/A   Light Drizzle
1:35 PM 37.4 °F 27.5 °F 35.6 °F 93% 29.37 in 7.0 mi NE 18.4 mph 26.5 mph N/A   Light Drizzle
1:55 PM 37.4 °F 27.5 °F 35.6 °F 93% 29.36 in 7.0 mi NE 18.4 mph 24.2 mph N/A   Overcast
2:15 PM 37.4 °F 28.2 °F 35.6 °F 93% 29.37 in 10.0 mi NE 16.1 mph 25.3 mph N/A   Overcast
2:35 PM 37.4 °F 26.9 °F 35.6 °F 93% 29.37 in 10.0 mi NE 20.7 mph 25.3 mph N/A   Overcast
2:55 PM 37.4 °F 28.9 °F 35.6 °F 93% 29.38 in 10.0 mi ENE 13.8 mph 21.9 mph N/A   Overcast
3:15 PM 37.4 °F 28.2 °F 35.6 °F 93% 29.37 in 10.0 mi ENE 16.1 mph 23.0 mph N/A   Light Drizzle
3:35 PM 37.4 °F 28.5 °F 35.6 °F 93% 29.38 in 10.0 mi ENE 15.0 mph 20.7 mph N/A   Light Drizzle
3:55 PM 37.4 °F 28.9 °F 35.6 °F 93% 29.39 in 10.0 mi ENE 13.8 mph - N/A   Overcast
4:15 PM 37.4 °F 29.3 °F 35.6 °F 93% 29.40 in 10.0 mi ENE 12.7 mph - N/A   Overcast
4:35 PM 37.4 °F 29.3 °F 35.6 °F 93% 29.39 in 10.0 mi NE 12.7 mph - N/A   Light Drizzle
4:55 PM 37.4 °F 29.8 °F 35.6 °F 93% 29.38 in 10.0 mi NE 11.5 mph - N/A   Overcast
5:15 PM 37.4 °F 30.8 °F 35.6 °F 93% 29.40 in 10.0 mi NE 9.2 mph - N/A   Overcast
5:35 PM 37.4 °F 30.8 °F 35.6 °F 93% 29.42 in 7.0 mi NNE 9.2 mph - N/A   Overcast
5:55 PM 37.4 °F 30.8 °F 35.6 °F 93% 29.42 in 4.0 mi North 9.2 mph - N/A   Drizzle
6:15 PM 35.6 °F 27.1 °F 35.6 °F 100% 29.44 in 4.0 mi NNE 12.7 mph - N/A   Light Drizzle
6:35 PM 35.6 °F 29.2 °F 35.6 °F 100% 29.44 in 3.0 mi NNE 8.1 mph - N/A   Drizzle
6:55 PM 35.6 °F 28.6 °F 35.6 °F 100% 29.44 in 3.0 mi NNE 9.2 mph - N/A   Light Drizzle
7:15 PM 35.6 °F 29.9 °F 35.6 °F 100% 29.45 in 3.0 mi NNE 6.9 mph - N/A   Light Drizzle
7:35 PM 35.6 °F 27.5 °F 33.8 °F 93% 29.45 in 2.0 mi North 11.5 mph - N/A   Drizzle
7:55 PM 35.6 °F 28.6 °F 33.8 °F 93% 29.47 in 2.5 mi NW 9.2 mph - N/A   Drizzle
8:15 PM 33.8 °F 27.7 °F 33.8 °F 100% 29.48 in 3.0 mi NNW 6.9 mph - N/A Rain Rain
8:35 PM 33.8 °F 26.4 °F 33.8 °F 100% 29.48 in 3.0 mi North 9.2 mph - N/A   Drizzle
8:55 PM 33.8 °F 26.4 °F 33.8 °F 100% 29.48 in 2.0 mi North 9.2 mph - N/A   Drizzle
9:15 PM 33.8 °F 25.3 °F 33.8 °F 100% 29.48 in 2.5 mi North 11.5 mph - N/A   Drizzle
9:35 PM 33.8 °F 25.8 °F 32.0 °F 93% 29.48 in 2.5 mi North 10.4 mph - N/A   Drizzle
9:55 PM 33.8 °F 25.3 °F 32.0 °F 93% 29.48 in 3.0 mi North 11.5 mph - N/A   Light Drizzle
10:15 PM 33.8 °F 25.8 °F 32.0 °F 93% 29.48 in 3.0 mi North 10.4 mph - N/A Rain Light Rain
10:35 PM 32.0 °F 24.8 °F 32.0 °F 100% 29.48 in 4.0 mi North 8.1 mph - N/A   Light Drizzle
10:55 PM 32.0 °F 24.8 °F 32.0 °F 100% 29.48 in 4.0 mi North 8.1 mph - N/A Snow Light Snow
11:15 PM 32.0 °F 24.8 °F 32.0 °F 100% 29.48 in 2.5 mi North 8.1 mph - N/A Snow Light Snow
11:35 PM 32.0 °F 24.8 °F 32.0 °F 100% 29.48 in 1.2 mi North 8.1 mph - N/A Snow Light Snow
11:55 PM 32.0 °F 25.6 °F 32.0 °F 100% 29.48 in 1.5 mi North 6.9 mph - 0.02 in Snow Light Snow